| time (UTC) | temp F | wind direction | speed knots | gust knots | rain 1hr in | rain 24hr in | rain mn in | humidity % | barometer mb |
| 20260504120112 | 51 | 268 | 1.7 | 3.5 | 0.00 | 0.00 | 0.00 | 61 | 1012.9 |
| 20260504110543 | 45 | 222 | 1.7 | 3.5 | 0.00 | 0.00 | 0.00 | 70 | 1012.8 |
| 20260504100546 | 37 | 0 | 0.0 | 0.0 | 0.00 | 0.00 | 0.00 | 89 | 1012.4 |
| 20260504081551 | 36 | 0 | 0.0 | 0.0 | 0.00 | 0.00 | 0.00 | 90 | 1012.4 |
| 20260504081043 | 36 | 0 | 0.0 | 0.0 | 0.00 | 0.00 | 0.00 | 90 | 1012.4 |
| 20260504080543 | 36 | 0 | 0.0 | 0.0 | 0.00 | 0.00 | 0.00 | 90 | 1012.3 |
| 20260504050540 | 38 | 0 | 0.0 | 0.0 | 0.00 | 0.00 | 0.00 | 84 | 1012.2 |
| 20260504050120 | 39 | 0 | 0.0 | 0.0 | 0.00 | 0.00 | 0.00 | 83 | 1012.1 |
| 20260504045544 | 39 | 0 | 0.0 | 0.0 | 0.00 | 0.00 | 0.00 | 83 | 1012.1 |
| 20260504045044 | 39 | 0 | 0.0 | 0.0 | 0.00 | 0.00 | 0.00 | 83 | 1012.1 |
| 20260504044551 | 39 | 0 | 0.0 | 0.0 | 0.00 | 0.00 | 0.00 | 83 | 1012.0 |
| 20260504044042 | 40 | 0 | 0.0 | 0.0 | 0.00 | 0.00 | 0.00 | 83 | 1012.1 |
| 20260504043541 | 40 | 0 | 0.0 | 0.0 | 0.00 | 0.00 | 0.00 | 83 | 1012.1 |
| 20260504043057 | 40 | 0 | 0.0 | 0.0 | 0.00 | 0.00 | 0.00 | 82 | 1012.1 |
| 20260504042540 | 40 | 0 | 0.0 | 0.0 | 0.00 | 0.00 | 0.00 | 81 | 1012.0 |
| 20260504042044 | 40 | 0 | 0.0 | 0.0 | 0.00 | 0.00 | 0.00 | 81 | 1011.8 |
| 20260504041549 | 40 | 0 | 0.0 | 0.0 | 0.00 | 0.00 | 0.00 | 83 | 1011.7 |
| 20260504041043 | 40 | 0 | 0.0 | 0.0 | 0.00 | 0.00 | 0.00 | 83 | 1011.6 |
| 20260504040541 | 39 | 0 | 0.0 | 0.0 | 0.00 | 0.00 | 0.00 | 82 | 1011.7 |
| 20260504035543 | 39 | 0 | 0.0 | 0.0 | 0.00 | 0.00 | 0.00 | 83 | 1011.6 |
| 20260504035043 | 40 | 0 | 0.0 | 0.0 | 0.00 | 0.00 | 0.00 | 82 | 1011.6 |
| 20260504034553 | 40 | 0 | 0.0 | 0.0 | 0.00 | 0.00 | 0.00 | 82 | 1011.6 |
| 20260504034043 | 40 | 0 | 0.0 | 0.0 | 0.00 | 0.00 | 0.00 | 81 | 1011.6 |
| 20260504033541 | 40 | 0 | 0.0 | 0.0 | 0.00 | 0.00 | 0.00 | 81 | 1011.6 |
| 20260504033047 | 40 | 0 | 0.0 | 0.0 | 0.00 | 0.00 | 0.00 | 80 | 1011.5 |
| 20260504032542 | 40 | 0 | 0.0 | 0.0 | 0.00 | 0.00 | 0.00 | 80 | 1011.6 |
| 20260504032041 | 41 | 0 | 0.0 | 0.0 | 0.00 | 0.00 | 0.00 | 79 | 1011.6 |
| 20260504031610 | 41 | 0 | 0.0 | 0.0 | 0.00 | 0.00 | 0.00 | 80 | 1011.7 |
| 20260504031043 | 41 | 0 | 0.0 | 0.0 | 0.00 | 0.00 | 0.00 | 80 | 1011.6 |
| 20260504030541 | 40 | 0 | 0.0 | 0.0 | 0.00 | 0.00 | 0.00 | 80 | 1011.7 |
| 20260504030052 | 41 | 0 | 0.0 | 0.0 | 0.00 | 0.00 | 0.00 | 80 | 1011.7 |
| 20260504025544 | 41 | 0 | 0.0 | 0.0 | 0.00 | 0.00 | 0.00 | 79 | 1011.6 |
| 20260504025041 | 41 | 0 | 0.0 | 0.0 | 0.00 | 0.00 | 0.00 | 79 | 1011.6 |
| 20260504024553 | 41 | 0 | 0.0 | 0.0 | 0.00 | 0.00 | 0.00 | 79 | 1011.6 |
| 20260504024043 | 41 | 0 | 0.0 | 0.0 | 0.00 | 0.00 | 0.00 | 77 | 1011.8 |
| 20260504023540 | 42 | 0 | 0.0 | 0.0 | 0.00 | 0.00 | 0.00 | 77 | 1011.8 |
| 20260504023049 | 42 | 0 | 0.0 | 0.0 | 0.00 | 0.00 | 0.00 | 77 | 1011.7 |
| 20260504022547 | 42 | 0 | 0.0 | 0.0 | 0.00 | 0.00 | 0.00 | 76 | 1011.8 |
| 20260504022043 | 42 | 0 | 0.0 | 0.0 | 0.00 | 0.00 | 0.00 | 75 | 1011.7 |
| 20260504021552 | 42 | 0 | 0.0 | 0.0 | 0.00 | 0.00 | 0.00 | 74 | 1011.7 |
| 20260504021043 | 43 | 0 | 0.0 | 0.0 | 0.00 | 0.00 | 0.00 | 73 | 1011.6 |
| 20260504020542 | 43 | 0 | 0.0 | 0.0 | 0.00 | 0.00 | 0.00 | 72 | 1011.6 |
| 20260504020055 | 43 | 0 | 0.0 | 0.0 | 0.00 | 0.00 | 0.00 | 71 | 1011.7 |
| 20260504015543 | 44 | 0 | 0.0 | 0.0 | 0.00 | 0.00 | 0.00 | 72 | 1011.7 |
| 20260504015043 | 44 | 0 | 0.0 | 0.0 | 0.00 | 0.00 | 0.00 | 71 | 1011.7 |
| 20260504014553 | 45 | 0 | 0.0 | 0.0 | 0.00 | 0.00 | 0.00 | 67 | 1011.7 |
| 20260504014040 | 45 | 0 | 0.0 | 0.0 | 0.00 | 0.00 | 0.00 | 65 | 1011.6 |
| 20260504013544 | 46 | 0 | 0.0 | 0.0 | 0.00 | 0.00 | 0.00 | 62 | 1011.6 |
| 20260504013055 | 46 | 0 | 0.0 | 0.0 | 0.00 | 0.00 | 0.00 | 62 | 1011.6 |
| 20260504012544 | 46 | 0 | 0.0 | 0.0 | 0.00 | 0.00 | 0.00 | 63 | 1011.6 |
| 20260504012041 | 46 | 0 | 0.0 | 0.0 | 0.00 | 0.00 | 0.00 | 64 | 1011.6 |
| 20260504011553 | 47 | 0 | 0.0 | 0.0 | 0.00 | 0.00 | 0.00 | 63 | 1011.6 |
| 20260504011040 | 47 | 0 | 0.0 | 0.0 | 0.00 | 0.00 | 0.00 | 64 | 1011.5 |
| 20260504010540 | 48 | 0 | 0.0 | 0.0 | 0.00 | 0.00 | 0.00 | 61 | 1011.4 |
| 20260504010058 | 49 | 0 | 0.0 | 0.0 | 0.00 | 0.00 | 0.00 | 62 | 1011.4 |
| 20260504005544 | 50 | 0 | 0.0 | 0.0 | 0.00 | 0.00 | 0.00 | 60 | 1011.4 |
| 20260504005044 | 50 | 0 | 0.0 | 0.0 | 0.00 | 0.00 | 0.00 | 55 | 1011.3 |
| 20260504004554 | 51 | 0 | 0.0 | 0.0 | 0.00 | 0.00 | 0.00 | 54 | 1011.3 |
| 20260504004044 | 52 | 0 | 0.0 | 0.0 | 0.00 | 0.00 | 0.00 | 48 | 1011.1 |
| 20260504003541 | 53 | 0 | 0.0 | 0.0 | 0.00 | 0.00 | 0.00 | 47 | 1011.2 |
| 20260504003051 | 54 | 0 | 0.0 | 0.0 | 0.00 | 0.00 | 0.00 | 44 | 1011.2 |
| 20260504002544 | 54 | 0 | 0.0 | 0.0 | 0.00 | 0.00 | 0.00 | 44 | 1011.2 |
| 20260504002041 | 54 | 0 | 0.0 | 0.0 | 0.00 | 0.00 | 0.00 | 44 | 1011.1 |
| 20260504001607 | 54 | 0 | 0.0 | 0.0 | 0.00 | 0.00 | 0.00 | 46 | 1011.1 |
| 20260504001045 | 54 | 0 | 0.0 | 0.0 | 0.00 | 0.00 | 0.00 | 44 | 1010.9 |
| 20260504000544 | 55 | 0 | 0.0 | 0.0 | 0.00 | 0.00 | 0.00 | 41 | 1010.9 |
| 20260504000048 | 55 | 0 | 0.0 | 0.0 | 0.00 | 0.00 | 0.00 | 42 | 1010.8 |
| 20260503235544 | 55 | 0 | 0.0 | 3.5 | 0.00 | 0.00 | 0.00 | 40 | 1010.8 |
| 20260503235044 | 56 | 0 | 0.0 | 3.5 | 0.00 | 0.00 | 0.00 | 40 | 1010.7 |
| 20260503234549 | 56 | 295 | 0.9 | 5.2 | 0.00 | 0.00 | 0.00 | 40 | 1010.8 |
| 20260503234044 | 56 | 334 | 1.7 | 5.2 | 0.00 | 0.00 | 0.00 | 39 | 1010.6 |
| 20260503233542 | 57 | 269 | 1.7 | 6.1 | 0.00 | 0.00 | 0.00 | 38 | 1010.6 |
| 20260503233050 | 57 | 265 | 2.6 | 6.1 | 0.00 | 0.00 | 0.00 | 38 | 1010.4 |
| 20260503232543 | 57 | 314 | 2.6 | 5.2 | 0.00 | 0.00 | 0.00 | 38 | 1010.4 |
| 20260503232041 | 56 | 0 | 0.0 | 2.6 | 0.00 | 0.00 | 0.00 | 39 | 1010.3 |
| 20260503231551 | 57 | 0 | 0.0 | 2.6 | 0.00 | 0.00 | 0.00 | 38 | 1010.3 |
| 20260503231044 | 57 | 294 | 0.9 | 2.6 | 0.00 | 0.00 | 0.00 | 36 | 1010.2 |
| 20260503230548 | 57 | 294 | 0.9 | 3.5 | 0.00 | 0.00 | 0.00 | 36 | 1010.3 |
| 20260503230051 | 57 | 310 | 1.7 | 5.2 | 0.00 | 0.00 | 0.00 | 37 | 1010.3 |
| 20260503225543 | 57 | 265 | 1.7 | 5.2 | 0.00 | 0.00 | 0.00 | 36 | 1010.1 |
| 20260503225041 | 57 | 312 | 1.7 | 5.2 | 0.00 | 0.00 | 0.00 | 36 | 1010.2 |
| 20260503224551 | 57 | 321 | 1.7 | 5.2 | 0.00 | 0.00 | 0.00 | 37 | 1010.2 |
| 20260503224044 | 58 | 5 | 0.9 | 7.0 | 0.00 | 0.00 | 0.00 | 38 | 1010.1 |
| 20260503223541 | 58 | 282 | 2.6 | 7.0 | 0.00 | 0.00 | 0.00 | 35 | 1010.1 |
| 20260503223048 | 58 | 319 | 2.6 | 7.0 | 0.00 | 0.00 | 0.00 | 35 | 1010.1 |
| 20260503222544 | 58 | 233 | 1.7 | 7.8 | 0.00 | 0.00 | 0.00 | 35 | 1010.0 |
| 20260503222040 | 58 | 269 | 1.7 | 8.7 | 0.00 | 0.00 | 0.00 | 35 | 1009.9 |
| 20260503221550 | 58 | 309 | 1.7 | 8.7 | 0.00 | 0.00 | 0.00 | 35 | 1009.9 |
| 20260503221045 | 58 | 294 | 2.6 | 8.7 | 0.00 | 0.00 | 0.00 | 33 | 1009.9 |
| 20260503220540 | 58 | 313 | 1.7 | 7.0 | 0.00 | 0.00 | 0.00 | 32 | 1009.9 |
| 20260503220050 | 58 | 280 | 1.7 | 6.1 | 0.00 | 0.00 | 0.00 | 36 | 1009.9 |
| 20260503215544 | 58 | 288 | 1.7 | 8.7 | 0.00 | 0.00 | 0.00 | 35 | 1009.7 |
| 20260503215044 | 57 | 298 | 1.7 | 8.7 | 0.00 | 0.00 | 0.00 | 34 | 1009.8 |
| 20260503214555 | 57 | 296 | 1.7 | 7.0 | 0.00 | 0.00 | 0.00 | 34 | 1010.0 |
| 20260503214046 | 57 | 260 | 3.5 | 7.0 | 0.00 | 0.00 | 0.00 | 34 | 1009.7 |
| 20260503213544 | 57 | 262 | 2.6 | 7.0 | 0.00 | 0.00 | 0.00 | 34 | 1009.7 |
| 20260503213117 | 57 | 303 | 1.7 | 5.2 | 0.00 | 0.00 | 0.00 | 34 | 1009.6 |
| 20260503212545 | 58 | 266 | 1.7 | 7.8 | 0.00 | 0.00 | 0.00 | 34 | 1009.6 |
| 20260503212040 | 58 | 255 | 3.5 | 10.4 | 0.00 | 0.00 | 0.00 | 31 | 1009.6 |
| 20260503211617 | 58 | 236 | 2.6 | 10.4 | 0.00 | 0.00 | 0.00 | 31 | 1009.6 |
| 20260503211045 | 58 | 259 | 3.5 | 10.4 | 0.00 | 0.00 | 0.00 | 31 | 1009.5 |
| 20260503210543 | 58 | 273 | 2.6 | 10.4 | 0.00 | 0.00 | 0.00 | 31 | 1009.7 |
| 20260503210055 | 57 | 350 | 1.7 | 9.6 | 0.00 | 0.00 | 0.00 | 32 | 1009.8 |
| 20260503205541 | 57 | 312 | 4.3 | 9.6 | 0.00 | 0.00 | 0.00 | 31 | 1009.8 |
| 20260503205045 | 58 | 261 | 1.7 | 7.8 | 0.00 | 0.00 | 0.00 | 31 | 1009.7 |
| 20260503204603 | 58 | 264 | 2.6 | 8.7 | 0.00 | 0.00 | 0.00 | 31 | 1009.7 |
| 20260503204042 | 57 | 252 | 1.7 | 8.7 | 0.00 | 0.00 | 0.00 | 31 | 1009.7 |
| 20260503203545 | 57 | 288 | 3.5 | 10.4 | 0.00 | 0.00 | 0.00 | 31 | 1009.6 |
| 20260503203050 | 56 | 352 | 2.6 | 12.2 | 0.00 | 0.00 | 0.00 | 32 | 1009.9 |
| 20260503202541 | 57 | 239 | 4.3 | 12.2 | 0.00 | 0.00 | 0.00 | 31 | 1010.0 |
| 20260503202046 | 57 | 303 | 3.5 | 11.3 | 0.00 | 0.00 | 0.00 | 31 | 1010.0 |
| 20260503201553 | 56 | 258 | 4.3 | 9.6 | 0.00 | 0.00 | 0.00 | 31 | 1009.9 |
| 20260503201042 | 57 | 271 | 2.6 | 8.7 | 0.00 | 0.00 | 0.00 | 34 | 1009.8 |
| 20260503200541 | 57 | 324 | 3.5 | 8.7 | 0.00 | 0.00 | 0.00 | 35 | 1010.1 |
| 20260503200054 | 56 | 339 | 1.7 | 7.8 | 0.00 | 0.00 | 0.00 | 36 | 1009.9 |
| 20260503195544 | 57 | 315 | 2.6 | 7.8 | 0.00 | 0.00 | 0.00 | 32 | 1010.1 |
| 20260503195040 | 56 | 283 | 3.5 | 8.7 | 0.00 | 0.00 | 0.00 | 37 | 1010.1 |
| 20260503194548 | 56 | 328 | 4.3 | 8.7 | 0.00 | 0.00 | 0.00 | 34 | 1010.2 |
| 20260503194042 | 57 | 277 | 2.6 | 7.8 | 0.00 | 0.00 | 0.00 | 34 | 1010.2 |
| 20260503193542 | 57 | 283 | 3.5 | 10.4 | 0.00 | 0.00 | 0.00 | 35 | 1010.3 |
| 20260503193046 | 56 | 295 | 3.5 | 10.4 | 0.00 | 0.00 | 0.00 | 33 | 1010.4 |
| 20260503192543 | 57 | 333 | 2.6 | 7.8 | 0.00 | 0.00 | 0.00 | 33 | 1010.3 |
| 20260503192041 | 57 | 277 | 0.9 | 7.8 | 0.00 | 0.00 | 0.00 | 39 | 1010.4 |
| 20260503191601 | 56 | 279 | 2.6 | 7.8 | 0.00 | 0.00 | 0.00 | 35 | 1010.4 |
| 20260503191041 | 56 | 288 | 1.7 | 7.8 | 0.00 | 0.00 | 0.00 | 35 | 1010.6 |
| 20260503190542 | 56 | 244 | 1.7 | 9.6 | 0.00 | 0.00 | 0.00 | 37 | 1010.6 |
| 20260503190049 | 56 | 12 | 1.7 | 9.6 | 0.00 | 0.00 | 0.00 | 39 | 1010.6 |
| 20260503185541 | 55 | 263 | 2.6 | 7.8 | 0.00 | 0.00 | 0.00 | 36 | 1010.7 |
| 20260503185041 | 55 | 296 | 2.6 | 8.7 | 0.00 | 0.00 | 0.00 | 37 | 1010.8 |
| 20260503184605 | 56 | 270 | 3.5 | 8.7 | 0.00 | 0.00 | 0.00 | 35 | 1010.8 |
| 20260503184043 | 55 | 268 | 5.2 | 8.7 | 0.00 | 0.00 | 0.00 | 36 | 1010.8 |
| 20260503183544 | 55 | 298 | 2.6 | 8.7 | 0.00 | 0.00 | 0.00 | 36 | 1010.8 |
| 20260503183049 | 55 | 245 | 3.5 | 8.7 | 0.00 | 0.00 | 0.00 | 40 | 1011.0 |
| 20260503182541 | 55 | 310 | 3.5 | 9.6 | 0.00 | 0.00 | 0.00 | 36 | 1011.0 |
| 20260503182044 | 55 | 329 | 3.5 | 9.6 | 0.00 | 0.00 | 0.00 | 36 | 1011.1 |
| 20260503181551 | 55 | 276 | 4.3 | 9.6 | 0.00 | 0.00 | 0.00 | 37 | 1011.0 |
| 20260503181041 | 55 | 338 | 2.6 | 8.7 | 0.00 | 0.00 | 0.00 | 37 | 1011.0 |
| 20260503180542 | 54 | 287 | 3.5 | 8.7 | 0.00 | 0.00 | 0.00 | 38 | 1011.0 |
| 20260503180050 | 54 | 282 | 2.6 | 7.0 | 0.00 | 0.00 | 0.00 | 39 | 1011.0 |
| 20260503175544 | 53 | 265 | 2.6 | 7.0 | 0.00 | 0.00 | 0.00 | 39 | 1010.9 |
| 20260503175043 | 55 | 342 | 2.6 | 7.0 | 0.00 | 0.00 | 0.00 | 40 | 1011.0 |
| 20260503174603 | 53 | 296 | 2.6 | 7.0 | 0.00 | 0.00 | 0.00 | 40 | 1011.0 |
| 20260503174044 | 53 | 275 | 2.6 | 7.0 | 0.00 | 0.00 | 0.00 | 38 | 1011.2 |
| 20260503173544 | 53 | 281 | 1.7 | 7.0 | 0.00 | 0.00 | 0.00 | 44 | 1011.2 |
| 20260503173048 | 52 | 17 | 0.9 | 7.0 | 0.00 | 0.00 | 0.00 | 41 | 1011.3 |
| 20260503172540 | 53 | 284 | 2.6 | 9.6 | 0.00 | 0.00 | 0.00 | 41 | 1011.3 |
| 20260503172137 | 53 | 350 | 3.5 | 9.6 | 0.00 | 0.00 | 0.00 | 38 | 1011.4 |
| 20260503171554 | 53 | 350 | 0.0 | 8.7 | 0.00 | 0.00 | 0.00 | 43 | 1011.4 |
| 20260503171043 | 53 | 13 | 2.6 | 7.8 | 0.00 | 0.00 | 0.00 | 40 | 1011.5 |
| 20260503170541 | 53 | 352 | 2.6 | 7.8 | 0.00 | 0.00 | 0.00 | 43 | 1011.6 |
| 20260503150543 | 48 | 0 | 1.7 | 7.0 | 0.00 | 0.00 | 0.00 | 44 | 1012.0 |
| 20260503131045 | 46 | 285 | 1.7 | 7.0 | 0.00 | 0.00 | 0.00 | 57 | 1012.2 |
| 20260503130545 | 46 | 290 | 2.6 | 7.0 | 0.00 | 0.00 | 0.00 | 58 | 1012.2 |